Simultaneous Nadir Overpasses (SNOs) Predictions

Prediction of SNOs between LANDSAT-8 and NOAA-19 Satellite Orbit:

Table of predicted SNOs for the next 14.0 days since TLE Epoch: 8/3/2024
Index Date (LANDSAT-8) Time (LANDSAT-8) Lat,Lon (LANDSAT-8) SZA (LANDSAT-8 ) Date (NOAA-19) Time (NOAA-19) Lat,Lon (NOAA-19) SZA (NOAA-19 ) Distance(km) Time Diff (sec)
1 08/05/2024 10:12:00 -80.59,-119.79 114.75 08/05/2024 10:11:51 -80.59,-119.86 114.76 1.30 9
2 08/07/2024 16:35:09 -80.58, 144.27 114.14 08/07/2024 16:34:40 -80.58, 144.31 114.14 0.58 29
3 08/07/2024 17:24:34 80.62, -47.70 65.94 08/07/2024 17:25:41 80.61, -47.75 65.96 1.04 67
4 08/09/2024 22:58:18 -80.55, 48.17 113.53 08/09/2024 22:57:30 -80.55, 48.06 113.56 2.07 48
5 08/09/2024 23:47:41 80.61,-143.50 66.60 08/09/2024 23:48:28 80.61,-143.46 66.62 0.73 47
6 08/12/2024 05:21:25 -80.53, -47.78 112.88 08/12/2024 05:20:18 -80.53, -47.92 112.92 2.56 67
7 08/12/2024 06:10:49 80.59, 120.53 67.25 08/12/2024 06:11:17 80.59, 120.40 67.24 2.50 28
8 08/14/2024 12:33:56 80.59, 24.71 67.94 08/14/2024 12:34:04 80.59, 24.86 67.96 2.80 8



Historial Predications of SNOs between LANDSAT-8 and NOAA-19
